Home > Time Zones > World Clock > Weather > Iran > Rasht > Past weeks

Flag for Iran Weather past 2 weeks in Rasht, Iran

Now
45 °F

Fog.


Feels Like: 45 °F
Forecast: 42 / 47 °F
Wind: No wind

Location: Rasht Airport

Current Time: Jan 26, 2015 at 8:28:02 AM

Latest Report: Jan 26, 2015 at 8:00 AM


Visibility: 2 mi

Pressure: 30.39 "Hg

Humidity: 93%

Dew point: 43 °F

Location of RashtLocation

Historic Weather in Rasht — Graph

°F

Rasht temperature yesterday

Maximum temperature yesterday: 50 °F (at 12:30 PM)
Minimum temperature yesterday: 36 °F (at 6:30 AM)
Average temperature yesterday: 46 °F

Past Weeks' High & Low Weather Summary

 TemperatureHumidityPressure
High63 °F (Jan 12, 2:30 PM)100% (Jan 12, 6:30 AM)30.51 "Hg (Jan 12, 6:30 AM)
Low30 °F (Jan 12, 6:30 AM)45% (Jan 12, 2:30 PM)29.98 "Hg (Jan 16, 6:30 AM)
Average47 °F88%30.27 "Hg
* Reported Jan 11 7:30 AM — Jan 26 7:30 AM, Rasht, Weather by CustomWeather, © 2014

Note: Actual official high and low records may vary slightly from our data, if they occured in-between our weather recording intervals... More about our weather records

Advertising

Rasht weather history for previous 24 hours

 ConditionsComfort  
Time TempWeatherWind HumidityBarometerVisibility
7:30 AM
Jan 26
45 °FFog.No wind93%30.39 "Hg2 mi
7:00 AM45 °FFog.No wind93%30.39 "Hg2 mi
6:30 AM45 °FFog.No wind93%30.39 "Hg2 mi
6:00 AM45 °FFog.No wind93%30.39 "Hg2 mi
8:00 PM
Jan 25
46 °FFog.7 mph93%30.42 "Hg2 mi
7:30 PM46 °FFog.7 mph93%30.42 "Hg2 mi
7:00 PM46 °FFog.7 mph93%30.42 "Hg2 mi
6:30 PM46 °FFog.7 mph93%30.42 "Hg2 mi
6:00 PM46 °FFog.7 mph93%30.39 "Hg2 mi
5:30 PM46 °FFog.5 mph93%30.39 "Hg2 mi
5:00 PM48 °FFog.7 mph87%30.39 "Hg3 mi
4:30 PM48 °FFog.9 mph87%30.39 "Hg3 mi
4:00 PM48 °FMore clouds than sun.7 mph87%30.36 "Hg4 mi
3:30 PM48 °FMore clouds than sun.5 mph87%30.36 "Hg4 mi
3:00 PM50 °FMore clouds than sun.7 mph88%30.36 "Hg4 mi
2:30 PM50 °FMore clouds than sun.7 mph88%30.36 "Hg4 mi
2:00 PM50 °FBroken clouds.9 mph88%30.36 "Hg4 mi
1:30 PM50 °FBroken clouds.7 mph88%30.36 "Hg4 mi
1:00 PM50 °FPartly sunny.5 mph76%30.36 "Hg4 mi
12:30 PM50 °FPartly sunny.5 mph76%30.36 "Hg4 mi
12:00 PM48 °FFog.5 mph87%30.39 "Hg2 mi
11:30 AM48 °FFog.5 mph87%30.39 "Hg2 mi
11:00 AM48 °FFog.5 mph94%30.39 "Hg2 mi
10:30 AM48 °FFog.7 mph94%30.39 "Hg2 mi
10:00 AM46 °FPartly sunny.5 mph93%30.39 "Hg4 mi
9:30 AM46 °FScattered clouds.No wind93%30.39 "Hg4 mi
9:00 AM41 °FFog.No wind100%30.36 "Hg2 mi
8:30 AM41 °FFog.No wind100%30.36 "Hg2 mi
8:00 AM39 °FFog.No wind93%30.36 "Hg2 mi
Weather by CustomWeather, © 2014

See weather overviewHow to use our weather pages